When you browse on this site, cookies collect data to enhance your experience and personalize the content and advertising you see.
Visit our Privacy Policy to learn more. By continuing to use the site, you agree to this use of cookies and data.
  • en Belgique
  • Liste des pays
  • À 7 jours
  • Température de l'eau
  • Carte météo
  • Widgets météo
  • user-avatar
    Se connecter

    Météo par heure à Kostygovo

    Ce jour, 5 Juin, Vendredi

    Heure Température Précipitation Vent Pression Humidité
    00:00 +12°C° 0.1 mm 2 m/s 739 mmHg 96%
    01:00 +10°C° 0.1 mm 2 m/s 739 mmHg 96%
    02:00 +10°C° 0 mm 2 m/s 739 mmHg 97%
    03:00 +10°C° 0 mm 2 m/s 739 mmHg 97%
    04:00 +10°C° 0 mm 3 m/s 740 mmHg 97%
    05:00 +10°C° 0 mm 3 m/s 740 mmHg 96%
    06:00 +11°C° 0 mm 3 m/s 740 mmHg 90%
    07:00 +13°C° 0 mm 3 m/s 741 mmHg 84%
    08:00 +14°C° 0 mm 4 m/s 741 mmHg 78%
    09:00 +15°C° 0.1 mm 4 m/s 741 mmHg 72%
    10:00 +18°C° 0.1 mm 4 m/s 741 mmHg 66%
    11:00 +19°C° 0.1 mm 4 m/s 741 mmHg 60%
    12:00 +19°C° 0.2 mm 4 m/s 741 mmHg 56%
    13:00 +20°C° 0.2 mm 4 m/s 741 mmHg 53%
    14:00 +20°C° 0.2 mm 3 m/s 742 mmHg 50%
    15:00 +19°C° 0.3 mm 3 m/s 741 mmHg 60%
    16:00 +18°C° 0.3 mm 3 m/s 741 mmHg 71%
    17:00 +17°C° 0.3 mm 2 m/s 741 mmHg 81%
    18:00 +16°C° 0.1 mm 2 m/s 742 mmHg 85%
    19:00 +15°C° 0.1 mm 1 m/s 742 mmHg 90%
    20:00 +14°C° 0.1 mm 1 m/s 742 mmHg 94%
    21:00 +13°C° 0 mm 1 m/s 742 mmHg 95%
    22:00 +12°C° 0 mm 1 m/s 742 mmHg 96%
    23:00 +11°C° 0 mm 1 m/s 742 mmHg 97%

    Demain, 6 Juin, Samedi

    Heure Température Précipitation Vent Pression Humidité
    00:00 +11°C° 0 mm 1 m/s 743 mmHg 97%
    01:00 +11°C° 0 mm 1 m/s 743 mmHg 97%
    02:00 +10°C° 0 mm 1 m/s 743 mmHg 98%
    03:00 +11°C° 0 mm 1 m/s 743 mmHg 97%
    04:00 +10°C° 0 mm 2 m/s 743 mmHg 97%
    05:00 +10°C° 0 mm 2 m/s 743 mmHg 96%
    06:00 +13°C° 0 mm 2 m/s 743 mmHg 91%
    07:00 +15°C° 0 mm 2 m/s 744 mmHg 86%
    08:00 +16°C° 0 mm 3 m/s 744 mmHg 80%
    09:00 +18°C° 0 mm 3 m/s 744 mmHg 72%
    10:00 +20°C° 0 mm 4 m/s 744 mmHg 63%
    11:00 +21°C° 0 mm 4 m/s 744 mmHg 54%
    12:00 +22°C° 0 mm 4 m/s 743 mmHg 55%
    13:00 +23°C° 0 mm 4 m/s 743 mmHg 55%
    14:00 +23°C° 0 mm 4 m/s 743 mmHg 56%
    15:00 +22°C° 0.7 mm 4 m/s 743 mmHg 68%
    16:00 +21°C° 0.7 mm 4 m/s 743 mmHg 81%
    17:00 +19°C° 0.7 mm 3 m/s 743 mmHg 93%
    18:00 +19°C° 0.4 mm 3 m/s 743 mmHg 94%
    19:00 +18°C° 0.4 mm 2 m/s 743 mmHg 95%
    20:00 +17°C° 0.4 mm 2 m/s 744 mmHg 96%
    21:00 +17°C° 0 mm 2 m/s 744 mmHg 97%
    22:00 +16°C° 0 mm 1 m/s 744 mmHg 97%
    23:00 +16°C° 0 mm 1 m/s 745 mmHg 97%

    Après-demain, 7 Juin, Dimanche

    Heure Température Précipitation Vent Pression Humidité
    00:00 +15°C° 0 mm 1 m/s 745 mmHg 97%
    01:00 +15°C° 0 mm 1 m/s 746 mmHg 97%
    02:00 +14°C° 0 mm 1 m/s 746 mmHg 97%
    03:00 +15°C° 0 mm 2 m/s 747 mmHg 96%
    04:00 +15°C° 0 mm 2 m/s 747 mmHg 95%
    05:00 +15°C° 0 mm 2 m/s 748 mmHg 94%
    06:00 +16°C° 0 mm 2 m/s 748 mmHg 86%
    07:00 +18°C° 0 mm 2 m/s 749 mmHg 78%
    08:00 +19°C° 0 mm 2 m/s 750 mmHg 70%
    09:00 +21°C° 0 mm 2 m/s 750 mmHg 61%
    10:00 +23°C° 0 mm 2 m/s 750 mmHg 52%
    11:00 +24°C° 0 mm 2 m/s 750 mmHg 44%
    12:00 +25°C° 0 mm 2 m/s 750 mmHg 42%
    13:00 +26°C° 0 mm 1 m/s 751 mmHg 40%
    14:00 +26°C° 0 mm 1 m/s 751 mmHg 38%
    15:00 +26°C° 0 mm 1 m/s 751 mmHg 42%
    16:00 +26°C° 0 mm 1 m/s 751 mmHg 47%
    17:00 +25°C° 0 mm 1 m/s 751 mmHg 51%
    18:00 +23°C° 0 mm 1 m/s 751 mmHg 58%
    19:00 +21°C° 0 mm 1 m/s 751 mmHg 64%
    20:00 +19°C° 0 mm 1 m/s 751 mmHg 71%
    21:00 +18°C° 0 mm 1 m/s 751 mmHg 72%
    22:00 +16°C° 0 mm 1 m/s 751 mmHg 73%
    23:00 +16°C° 0 mm 1 m/s 751 mmHg 74%

    8 Juin, Lundi

    Heure Température Précipitation Vent Pression Humidité
    00:00 +15°C° 0 mm 1 m/s 751 mmHg 76%
    01:00 +14°C° 0 mm 1 m/s 751 mmHg 79%
    02:00 +14°C° 0 mm 1 m/s 751 mmHg 81%
    03:00 +15°C° 0 mm 1 m/s 751 mmHg 81%
    04:00 +16°C° 0 mm 1 m/s 751 mmHg 81%
    05:00 +16°C° 0 mm 1 m/s 751 mmHg 81%
    06:00 +19°C° 0 mm 1 m/s 751 mmHg 77%
    07:00 +21°C° 0 mm 1 m/s 751 mmHg 72%
    08:00 +23°C° 0 mm 2 m/s 751 mmHg 67%
    09:00 +25°C° 0 mm 2 m/s 751 mmHg 64%
    10:00 +26°C° 0 mm 2 m/s 751 mmHg 60%
    11:00 +27°C° 0 mm 2 m/s 751 mmHg 57%
    12:00 +27°C° 0.1 mm 2 m/s 751 mmHg 57%
    13:00 +28°C° 0.1 mm 2 m/s 751 mmHg 57%
    14:00 +28°C° 0.1 mm 2 m/s 751 mmHg 57%
    15:00 +28°C° 0.1 mm 2 m/s 750 mmHg 60%
    16:00 +27°C° 0.1 mm 2 m/s 750 mmHg 63%
    17:00 +27°C° 0.1 mm 2 m/s 750 mmHg 65%
    18:00 +25°C° 0.1 mm 2 m/s 750 mmHg 73%
    19:00 +23°C° 0.1 mm 2 m/s 750 mmHg 80%
    20:00 +21°C° 0.1 mm 2 m/s 750 mmHg 87%
    21:00 +20°C° 0 mm 2 m/s 750 mmHg 90%
    22:00 +19°C° 0 mm 2 m/s 750 mmHg 93%
    23:00 +18°C° 0 mm 2 m/s 750 mmHg 96%

    9 Juin, Mardi

    Heure Température Précipitation Vent Pression Humidité
    00:00 +18°C° 0 mm 2 m/s 750 mmHg 96%
    01:00 +17°C° 0 mm 2 m/s 750 mmHg 96%
    02:00 +17°C° 0 mm 2 m/s 751 mmHg 97%
    03:00 +17°C° 0 mm 2 m/s 751 mmHg 95%
    04:00 +18°C° 0 mm 2 m/s 751 mmHg 92%
    05:00 +18°C° 0 mm 2 m/s 751 mmHg 90%
    06:00 +20°C° 0 mm 2 m/s 751 mmHg 83%
    07:00 +23°C° 0 mm 2 m/s 751 mmHg 76%
    08:00 +24°C° 0 mm 2 m/s 751 mmHg 69%
    09:00 +25°C° 0 mm 3 m/s 751 mmHg 65%
    10:00 +26°C° 0 mm 3 m/s 751 mmHg 60%
    11:00 +27°C° 0 mm 3 m/s 751 mmHg 55%
    12:00 +28°C° 0 mm 3 m/s 751 mmHg 54%
    13:00 +28°C° 0 mm 3 m/s 751 mmHg 53%
    14:00 +28°C° 0 mm 3 m/s 751 mmHg 53%
    15:00 +28°C° 0 mm 3 m/s 751 mmHg 55%
    16:00 +28°C° 0 mm 2 m/s 750 mmHg 58%
    17:00 +27°C° 0 mm 2 m/s 750 mmHg 60%
    18:00 +25°C° 0 mm 2 m/s 750 mmHg 69%
    19:00 +24°C° 0 mm 2 m/s 750 mmHg 78%
    20:00 +21°C° 0 mm 2 m/s 750 mmHg 87%
    21:00 +20°C° 0 mm 2 m/s 750 mmHg 90%
    22:00 +19°C° 0 mm 2 m/s 751 mmHg 93%
    23:00 +19°C° 0 mm 1 m/s 751 mmHg 95%

    10 Juin, Mercredi

    Heure Température Précipitation Vent Pression Humidité
    00:00 +18°C° 0 mm 1 m/s 751 mmHg 96%
    01:00 +18°C° 0 mm 1 m/s 751 mmHg 96%
    02:00 +18°C° 0 mm 1 m/s 751 mmHg 96%
    03:00 +18°C° 0 mm 1 m/s 751 mmHg 94%
    04:00 +19°C° 0 mm 1 m/s 751 mmHg 93%
    05:00 +19°C° 0 mm 1 m/s 751 mmHg 91%
    06:00 +21°C° 0 mm 1 m/s 751 mmHg 83%
    07:00 +23°C° 0 mm 1 m/s 751 mmHg 76%
    08:00 +25°C° 0 mm 1 m/s 751 mmHg 68%
    09:00 +26°C° 0 mm 1 m/s 751 mmHg 63%
    10:00 +28°C° 0 mm 1 m/s 751 mmHg 57%
    11:00 +29°C° 0 mm 1 m/s 751 mmHg 52%
    12:00 +29°C° 0 mm 1 m/s 750 mmHg 50%
    13:00 +30°C° 0 mm 1 m/s 750 mmHg 48%
    14:00 +30°C° 0 mm 1 m/s 750 mmHg 46%
    15:00 +29°C° 0 mm 1 m/s 750 mmHg 51%
    16:00 +29°C° 0 mm 1 m/s 749 mmHg 55%
    17:00 +28°C° 0 mm 1 m/s 749 mmHg 60%
    18:00 +26°C° 0 mm 1 m/s 749 mmHg 69%
    19:00 +24°C° 0 mm 1 m/s 749 mmHg 77%
    20:00 +22°C° 0 mm 1 m/s 749 mmHg 86%
    21:00 +21°C° 0 mm 1 m/s 749 mmHg 88%
    22:00 +21°C° 0 mm 1 m/s 749 mmHg 90%
    23:00 +20°C° 0 mm 1 m/s 749 mmHg 92%
    Voir plus